Regional Weather Roundup
Issued by NWS Wakefield, VA

Home | Current Version | Previous Version | Text Only | Print | Product List | Glossary On
Versions: 1 2 3 4 5 6 7 8 9 10 11 12 13 14 15 16 17 18 19 20 21 22 23 24 25 26 27 28
000
ASUS41 KAKQ 221514
RWRAKQ

REGIONAL WEATHER ROUNDUP
NATIONAL WEATHER SERVICE WAKEFIELD VA
1000 AM EST WED FEB 22 2017

Note: "fair" indicates few or no clouds below 12,000 feet with no
significant weather and/or obstructions to visibility. * = Denotes
station may not report precipitation (e.g., rain,snow,etc.),
thunder or fog.

VAZ042-051-052>054-056-221600-
NORTHERN VIRGINIA

CITY           SKY/WX    TMP DP  RH WIND       PRES   REMARKS
WASH NATIONAL  CLOUDY    50  44  80 S7        30.03F
DULLES         CLOUDY    51  40  65 SW3       30.02F
FORT BELVOIR   CLOUDY    50  42  76 CALM      30.02F
QUANTICO       LGT RAIN  47  45  93 S3        30.04F
FREDERICKSBRG* DRIZZLE   49  49 100 CALM      30.01F
STAFFORD*      DRIZZLE   49  48  96 CALM      30.06F
WARRENTON      MOSUNNY   52  42  71 CALM      30.01F
CULPEPER*      CLOUDY    51  46  83 CALM      30.03S
MANASSAS*      MOSUNNY   51  42  71 SW3       30.02F
LEESBURG*      CLOUDY    52  43  71 MISG      30.02F
WINCHESTER     CLOUDY    54  41  62 SW5       29.99F
FRONT ROYAL*   CLOUDY    55  43  62 SW6       29.99F
LURAY*         CLOUDY    54  46  76 CALM      30.01S
$$

VAZ048-049-060>072-079>083-221600-
CENTRAL AND SOUTH CENTRAL VIRGINIA

CITY           SKY/WX    TMP DP  RH WIND       PRES   REMARKS
RICHMOND       CLOUDY    52  46  80 W7        30.05F
CHESTERFIELD*  CLOUDY    54  34  47 W3        30.07S
PETERSBURG*    CLOUDY    51  45  81 W5        30.06S
HANOVER        CLOUDY    53  46  77 VRB6      30.06F
TAPPAHANNOCK*  CLOUDY    52  44  76 SW5       30.05F
QUINTON*       CLOUDY    50  46  86 MISG      30.05F
CHARLOTTSVILLE CLOUDY    51  48  89 SW5       30.01F
GORDONSVILLE*  CLOUDY    49  48  95 SW6       30.00F
ORANGE*        CLOUDY    50  46  87 CALM      30.02S
LOUISA*        CLOUDY    54  48  82 MISG      30.01F
BUMPASS*       CLOUDY    49  48  97 SW6       30.04F
FARMVILLE*     RAIN      48  47  99 CALM      30.04S
CREWE*         CLOUDY    47  47 100 CALM      30.05S
FORT PICKETT*  CLOUDY    51  47  87 N3        30.05S
CHASE CITY*    CLOUDY    52  50  93 CALM      30.04F
CLARKSVILLE*   CLOUDY    50  50 100 CALM      30.04F
SOUTH HILL*    CLOUDY    53  50  89 CALM      30.09F
LAWRENCEVILLE* CLOUDY    52  47  84 CALM      30.05S
EMPORIA*       CLOUDY    54  46  76 CALM      30.06F
$$

VAZ088>098-221600-
SOUTHEAST VIRGINIA

CITY           SKY/WX    TMP DP  RH WIND       PRES   REMARKS
NORFOLK        CLOUDY    61  49  64 S7        30.04F
VIRGINIA BEACH CLOUDY    61  49  64 SW8       30.04F
NORFOLK NAVAL  CLOUDY    62  49  62 VRB6      30.06S
WEST POINT*    PTSUNNY   51  47  83 W3        30.07S
SALUDA*        FAIR      53  49  85 SW6       30.04F
NEWPORT NEWS   MOSUNNY   60  50  69 S6        30.04F
LANGLEY AFB    CLOUDY    58  50  74 S8        30.04F
FORT EUSTIS    CLOUDY    57  48  73 VRB5      30.02F
WILLIAMSBURG*  CLOUDY    57  50  77 CALM      30.06S
HR EXEC AP*    CLOUDY    61  48  63 SW6       30.03F
FRANKLIN*      MOSUNNY   58  49  70 S5        30.06S
US460-WAKEFLD  PTSUNNY   55  49  80 SW6       30.05F
$$

VAZ020-022-025-037-045-221600-
WEST CENTRAL AND SOUTHWEST VIRGINIA

CITY           SKY/WX    TMP DP  RH WIND       PRES   REMARKS
STAUNTON*      CLOUDY    50  47  87 SW3       30.03S
WAYNESBORO*    CLOUDY    49  46  91 CALM      30.02F
HOT SPRINGS VA CLOUDY    50  46  87 S5        30.03S
LYNCHBURG      LGT RAIN  47  44  90 CALM      30.06S FOG
DANVILLE       CLOUDY    49  47  93 W3        30.05F
SOUTH BOSTON*  CLOUDY    51  49  95 CALM      30.05S
MARTINSVILLE   DRIZZLE   45  44  95 CALM      30.08S
ROANOKE        LGT RAIN  48  45  89 CALM      30.06F FOG
BLACKSBURG     LGT RAIN  47  46  96 CALM      30.07S
DUBLIN*        LGT RAIN  47  46  96 CALM      30.06S
MARION*        RAIN      47  46  96 E6        30.06F
HILLSVILLE*    LGT RAIN  45  45 100 CALM      30.03S
RICHLANDS*     DRIZZLE   51  50  99 CALM      30.00S
WISE*          CLOUDY    52  52 100 CALM      30.00S
ABINGDON*      LGT RAIN  51  50  97 E9        30.01F
$$

MDZ021>025-VAZ099-100-221600-
SOUTHERN MARYLAND AND THE DELMARVA PENINSULA

CITY           SKY/WX    TMP DP  RH WIND       PRES   REMARKS
PATUXENT RIVER CLOUDY    48  45  89 E3        30.04F
BAY BRIDGE APT CLOUDY    48  43  81 SE5       30.03F
LEONARDTOWN    MOSUNNY   50  45  81 SW5       30.05F
DOVER          CLOUDY    46  46 100 SE6       30.04F
GEORGETOWN     MOSUNNY   52  47  83 SW5       30.05F
EASTON         PTSUNNY   50  45  81 S7        30.07F
CAMBRIDGE      NOT AVBL
SALISBURY      CLOUDY    55  50  83 SW5       30.05F
OCEAN CITY     CLOUDY    51  47  86 S3        30.06F
WALLOPS ISLAND CLOUDY    56  50  80 SW5       30.06F
ACCOMACK*      CLOUDY    57  50  78 SW3       30.05S
$$

NCZ012>017-030>032-221600-
NORTH CENTRAL AND EASTERN NORTH CAROLINA

CITY           SKY/WX    TMP DP  RH WIND       PRES   REMARKS
ROANOKE RAPIDS CLOUDY    57  50  77 CALM      30.04F
RALEIGH        PTSUNNY   64  52  64 S7        30.03F
ELIZABETH CITY MOSUNNY   64  50  60 S6        30.06S
AHOSKIE*         N/A     60  51  71 S3        30.05S
EDENTON*       MOSUNNY   63  52  67 S8        30.05F
CURRITUCK*     MOSUNNY   64  49  58 SW3       30.06S
KILL DEVIL HLS NOT AVBL
MANTEO         MOSUNNY   65  48  55 S8        30.06F
CAPE HATTERAS  SUNNY     70  51  51 SE6       30.05F
TARBORO*       NOT AVBL
GOLDSBORO      MOSUNNY   65  56  72 SE7       30.01F
WASHINGTON     MOSUNNY   65  52  63 SE5       30.04F
GREENVILLE     MOSUNNY   63  52  67 SE5       30.05F
NEW BERN       MOSUNNY   66  53  63 E3        30.05F
WILMINGTON     MOSUNNY   68  55  63 SE12      30.01S
$$

VAZ048-221600-
ELSEWHERE

CITY           SKY/WX    TMP DP  RH WIND       PRES   REMARKS
HARRISBURG PA  CLOUDY    47  39  74 E5        30.02S
BALTIMORE      CLOUDY    49  41  74 CALM      30.02F
ANNAPOLIS      CLOUDY    47  43  86 SE7       30.03F
ANDREWS AFB    CLOUDY    50  43  77 SW3       30.01F
PHILADELPHIA   CLOUDY    45  38  76 W7        30.05S
HENDERSON NC   MOSUNNY   50  46  83 CALM      30.04F
GREENSBORO     CLOUDY    54  53  97 N5        30.03S
ROCKY MOUNT    MOSUNNY   64  53  67 SE5       30.03F
$$

VAZ100-221600-
MARINE

STATION/POSITION TIME  TEMP    WIND        PRES    WAVE   SWELL
                       AIR SEA DIR/SP/G            HT/PER HT/PER
                 (UTC) (F)     (DEG/KT/KT) (MB)    (FT/S) (FT/S)
CAPE MAY NJ      1448   49 42   CALM  /  2 1017.6F
LEWES DE         1442   50 42  190/  2/  3 1017.6F
OCEAN-CITY-INLET 1442   49 43  180/  4/  6 1018.3F
WACHAPREAGUE VA  1442   53 49  200/  5/  6 1017.6F
THOMAS POINT MD  1500   44 42  200/  3/  3   N/A
GOOSES REEF MD   1500   45 43  170/  8/  8 1017.6
COVE POINT MD    1442   44     170/  6/  7 1017.9F
SOLOMONS ISLAND  1442   45 43   70/  3/  4   N/A
BISHOPS HEAD MD  1442   45 47  150/  4/  4 1017.8F
PINEY POINT MD   1448          100/  2/  2   N/A
POTOMAC MD       1500   45 45  120/  4/  4 1016.3    0
CAMBRIDGE MD     1442   49 42  210/  3/  6 1016.8F
LEWISETTA VA     1442   51 44  260/  6/  8 1017.0F
RAPPAHANNOCK LGT 1448          180/  7/  7 1018.0F
YORK RVR RNG VA  1442   49     240/  2/  2 1016.9F
YORKTOWN VA      1448   49 47  350/  1/  1 1017.1F
JAMESTOWN VA     1500   49 51  320/  6/  6   N/A     0
DOMINION TERM VA 1448   54        CALM     1017.4F
KIPTOPEKE VA     1448      46  140/  3/  3   N/A
CHES BAY BRIDGE  1448   56 46  190/  5/  5 1017.4F
CAPE HENRY VA    1448   60     180/  6/  9   N/A
WILLOUBY STN VA  1448   57     210/  6/  7 1018.3F
S CRANEY ISL VA  1448   56     190/  4/  5 1017.2F
CAPE HENRY BUOY  1442      48                N/A     3/ 8   2/11
OFFSHORE WE BUOY 1451      48                N/A     3/ 9
64NM E OF VA BCH 1450   56 54  190/  6/  6 1017.8F   4/ 9   5/ 9
DUCK PIER NC     1448   52 48  150/ 10/ 11 1016.9F
44100 DUCK FRF   1435      47                N/A     3/ 9   2/11
44056 DUCK FRF   1430      49                N/A     3/ 8
OREGON INLET NC  1442   62 51  120/  4/  6 1017.9F
HATTERAS NC      1448   66 58  110/  5/  7 1017.3F
DIAMOND SHLS NC  1450   67 74  150/  8/ 12 1017.8F   3/ 9   3/ 9
CAPE LOOKOUT NC  1500   63     120/  5/  6 1016.6F
$$




USA.gov is the U.S. government's official web portal to all federal, state and local government web resources and services.